WetterOnline ( https://www.wetteronline.de )

Wetter aktuell Oberhausen

Aktuelles Wetter: Hohenpeißenberg (986m)

6-stündlich | Neueste Meldungen
Ortszeit Temperatur Wetter
Mi, 17.07. 20:00 21.7° C wolkig
Mi, 17.07. 14:00 23.1° C wolkig
Mi, 17.07. 8:00 16.5° C leicht bewölkt
Mi, 17.07. 2:00 15.6° C wolkig
Di, 16.07. 20:00 19.2° C wolkenlos
Di, 16.07. 14:00 20.9° C leicht bewölkt
Di, 16.07. 8:00 14.0° C wolkenlos
Di, 16.07. 2:00 13.4° C leicht bewölkt
Ortszeit Temperatur Wetter
Do, 18.07. 0:00 17.3° C bewölkt
Mi, 17.07. 23:40 17.8° C bewölkt
Mi, 17.07. 23:30 17.3° C bewölkt
Mi, 17.07. 23:20 17.3° C bewölkt
Mi, 17.07. 23:10 17.5° C wolkig
Mi, 17.07. 23:00 16.7° C wolkig
Mi, 17.07. 22:50 16.7° C wolkig
Mi, 17.07. 22:30 15.6° C wolkig
Mi, 17.07. 22:00 17.1° C leicht bewölkt
Mi, 17.07. 21:30 16.7° C wolkenlos
Mi, 17.07. 21:00 18.0° C leicht bewölkt
Ortszeit Relative Feuchte Sichtweite
Mi, 17.07. 20:00 38% 60 km
Mi, 17.07. 14:00 45% 50 km
Mi, 17.07. 8:00 62% 60 km
Mi, 17.07. 2:00 63% 55 km
Di, 16.07. 20:00 51% 60 km
Di, 16.07. 14:00 50% >70 km
Di, 16.07. 8:00 75% 30 km
Di, 16.07. 2:00 77% 35 km
Ortszeit Relative Feuchte Sichtweite
Do, 18.07. 0:00 56% 55 km
Mi, 17.07. 23:40 52% -
Mi, 17.07. 23:30 56% 45 km
Mi, 17.07. 23:20 56% -
Mi, 17.07. 23:10 56% -
Mi, 17.07. 23:00 59% 45 km
Mi, 17.07. 22:50 59% -
Mi, 17.07. 22:30 71% 40 km
Mi, 17.07. 22:00 59% 50 km
Mi, 17.07. 21:30 67% 35 km
Mi, 17.07. 21:00 61% 40 km
Ortszeit Niederschlagsmenge Niederschlagsart
Mi, 17.07. 20:00 0.0 l/m2 in 12 Std. -
Mi, 17.07. 14:00 0.0 l/m2 in 6 Std. -
Mi, 17.07. 8:00 0.0 l/m2 in 12 Std. -
Mi, 17.07. 2:00 0.0 l/m2 in 6 Std. -
Di, 16.07. 20:00 0.0 l/m2 in 12 Std. -
Di, 16.07. 14:00 0.0 l/m2 in 6 Std. -
Di, 16.07. 8:00 0.0 l/m2 in 12 Std. -
Di, 16.07. 2:00 0.0 l/m2 in 6 Std. -
Ortszeit Niederschlagsmenge Niederschlagsart
Do, 18.07. 0:00 0.0 l/m2 in 1 Std. -
Mi, 17.07. 23:40 keine Meldung -
Mi, 17.07. 23:30 0.0 l/m2 in 1 Std. -
Mi, 17.07. 23:20 keine Meldung -
Mi, 17.07. 23:10 keine Meldung -
Mi, 17.07. 23:00 0.0 l/m2 in 1 Std. -
Mi, 17.07. 22:50 keine Meldung -
Mi, 17.07. 22:30 0.0 l/m2 in 1 Std. -
Mi, 17.07. 22:00 0.0 l/m2 in 1 Std. -
Mi, 17.07. 21:30 0.0 l/m2 in 1 Std. -
Mi, 17.07. 21:00 0.0 l/m2 in 1 Std. -
Ortszeit Stärke Spitze Richtung
km/h Bft. km/h Grad Sektor
Mi, 17.07. 20:00 4 1 36 280° W
Mi, 17.07. 14:00 9 2 33 240° SW
Mi, 17.07. 8:00 11 2 18 230° SW
Mi, 17.07. 2:00 9 2 20 60° NO
Di, 16.07. 20:00 7 2 28 340° N
Di, 16.07. 14:00 7 2 22 280° W
Di, 16.07. 8:00 4 1 22 130° SO
Di, 16.07. 2:00 7 2 22 310° NW
Ortszeit Stärke Spitze Richtung
km/h Bft. km/h Grad Sektor
Do, 18.07. 0:00 7 2 14 90° O
Mi, 17.07. 23:40 7 2 - 70° O
Mi, 17.07. 23:30 7 2 14 70° O
Mi, 17.07. 23:20 7 2 - 70° O
Mi, 17.07. 23:10 7 2 - 50° NO
Mi, 17.07. 23:00 14 3 22 30° NO
Mi, 17.07. 22:50 14 3 - 30° NO
Mi, 17.07. 22:30 17 3 20 10° N
Mi, 17.07. 22:00 19 3 30 30° NO
Mi, 17.07. 21:30 18 3 29 20° N
Mi, 17.07. 21:00 17 3 31 360° N
Ortszeit Untergrenze Bedeckung Gattung
total tief tief mittel hoch
Mi, 17.07. 20:00 6300 m 8/8 3/8 - - -
Mi, 17.07. 14:00 1470 m 5/8 4/8 - - -
Mi, 17.07. 8:00 8100 m 8/8 0/8 - - -
Mi, 17.07. 2:00 8700 m 8/8 0/8 - - -
Di, 16.07. 20:00 - 0/8 0/8 - - -
Di, 16.07. 14:00 1200 m 3/8 3/8 - - -
Di, 16.07. 8:00 - 0/8 0/8 - - -
Di, 16.07. 2:00 1290 m 5/8 3/8 - - -
Ortszeit Bedeckungsgrad in Achtel und Wolkenuntergrenze
Do, 18.07. 0:00 7(1800m)
Mi, 17.07. 23:40 7(1800m) 7(2100m)
Mi, 17.07. 23:30 3(1800m) 7(2100m) 7(2400m)
Mi, 17.07. 23:20 3(1800m) 7(2100m) 7(2400m)
Mi, 17.07. 23:10 3(1800m) 6(2400m)
Mi, 17.07. 23:00 5(1800m) 6(2400m) 6(3900m)
Mi, 17.07. 22:50 5(1800m) 6(2400m) 6(3900m)
Mi, 17.07. 22:30 4(2100m) 7(3600m) 7(5100m)
Mi, 17.07. 22:00 1(5700m) 4(3600m) 4(5400m)
Mi, 17.07. 21:30 keine Wolken
Mi, 17.07. 21:00 2(1800m) 4(9000m)
Ortszeit Stationsdruck (hPa) Tendenz (hPa in 3 Std.)
Mi, 17.07. 20:00 902 - 0,7
Mi, 17.07. 14:00 903 - 0,4
Mi, 17.07. 8:00 904 - 0,6
Mi, 17.07. 2:00 906 - 0,1
Di, 16.07. 20:00 905 - 0,1
Di, 16.07. 14:00 906 0,0
Di, 16.07. 8:00 906 + 0,3
Di, 16.07. 2:00 906 + 0,3
Ortszeit Stationsdruck (hPa) Tendenz (hPa in 3 Std.)
Do, 18.07. 0:00 903 + 0,6
Mi, 17.07. 23:40 903 keine Meldung
Mi, 17.07. 23:30 903 + 0,7
Mi, 17.07. 23:20 903 keine Meldung
Mi, 17.07. 23:10 903 keine Meldung
Mi, 17.07. 23:00 903 + 0,7
Mi, 17.07. 22:50 903 keine Meldung
Mi, 17.07. 22:30 903 + 0,5
Mi, 17.07. 22:00 903 + 0,7
Mi, 17.07. 21:30 903 + 0,4
Mi, 17.07. 21:00 902 0,0
Ortszeit Schneehöhe (cm)
Mi, 17.07. 20:00 -
Mi, 17.07. 14:00 -
Mi, 17.07. 8:00 -
Mi, 17.07. 2:00 -
Di, 16.07. 20:00 -
Di, 16.07. 14:00 -
Di, 16.07. 8:00 -
Di, 16.07. 2:00 -
Ortszeit Schneehöhe (cm)
Do, 18.07. 0:00 -
Mi, 17.07. 23:40 -
Mi, 17.07. 23:30 -
Mi, 17.07. 23:20 -
Mi, 17.07. 23:10 -
Mi, 17.07. 23:00 -
Mi, 17.07. 22:50 -
Mi, 17.07. 22:30 -
Mi, 17.07. 22:00 -
Mi, 17.07. 21:30 -
Mi, 17.07. 21:00 -
Link zu dieser Seite / Seite empfehlen

Das Wetter in ...